This is the latest recevied weather packets stored in our database for station/object KD7AWQ. If no packets are shown the sender has not sent any weather packets the latest 10 day(s).
| Time | Temp. | Humidity | Pressure | Rain* | Wind** | Luminosity | Snow |
|---|---|---|---|---|---|---|---|
| 1787797514 | 32.22° C | 20% | 1187.5 hPa | 0 mm | - | 0 W/m² | - |
| 1787797208 | 32.78° C | 20% | 1187.4 hPa | 0 mm | - | 0 W/m² | - |
| 1787796904 | 32.78° C | 19% | 1187.3 hPa | 0 mm | - | 0 W/m² | - |
| 1787796598 | 33.33° C | 19% | 1187 hPa | 0 mm | - | 0 W/m² | - |
| 1787796294 | 33.33° C | 19% | 1186.9 hPa | 0 mm | - | 1 W/m² | - |
| 1787795992 | 33.33° C | 18% | 1186.9 hPa | 0 mm | - | 2 W/m² | - |
| 1787795686 | 33.89° C | 18% | 1186.7 hPa | 0 mm | - | 4 W/m² | - |
| 1787795381 | 34.44° C | 16% | 1186.9 hPa | 0 mm | - | 7 W/m² | - |
| 1787795080 | 34.44° C | 16% | 1186.5 hPa | 0 mm | - | 12 W/m² | - |
| 1787794774 | 34.44° C | 17% | 1186.3 hPa | 0 mm | - | 18 W/m² | - |
| 1787794471 | 35° C | 16% | 1186.2 hPa | 0 mm | - | 26 W/m² | - |
| 1787794171 | 35° C | 16% | 1186.4 hPa | 0 mm | - | 33 W/m² | - |
| 1787793867 | 35.56° C | 16% | 1186.4 hPa | 0 mm | - | 40 W/m² | - |
| 1787793562 | 36.67° C | 15% | 1186.4 hPa | 0 mm | - | 48 W/m² | - |
| 1787793257 | 37.22° C | 14% | 1186.4 hPa | 0 mm | - | 60 W/m² | - |
| 1787792952 | 37.78° C | 14% | 1186.4 hPa | 0 mm | - | 93 W/m² | - |
| 1787792648 | 37.22° C | 14% | 1186.2 hPa | 0 mm | - | 118 W/m² | - |
| 1787792344 | 37.22° C | 15% | 1186.2 hPa | 0 mm | - | 135 W/m² | - |
| 1787792044 | 37.78° C | 14% | 1186.3 hPa | 0 mm | - | 124 W/m² | - |
| 1787791742 | 37.78° C | 13% | 1186.2 hPa | 0 mm | - | 151 W/m² | - |
| 1787791438 | 37.78° C | 13% | 1186.3 hPa | 0 mm | - | 187 W/m² | - |
| 1787791133 | 38.33° C | 13% | 1186 hPa | 0 mm | - | 187 W/m² | - |
| 1787790829 | 37.78° C | 13% | 1186.3 hPa | 0 mm | - | 229 W/m² | - |
| 1787790529 | 38.89° C | 13% | 1186.4 hPa | 0 mm | - | 237 W/m² | - |
| 1787790224 | 38.33° C | 13% | 1186.2 hPa | 0 mm | - | 288 W/m² | - |
* Rain latest hour (hover to see other rain measurements)
** Current wind speed in m/s (hover to see current wind gust speed)